sat.trackr.live / text

‹ back to catalog

STARLINK-5375

NORAD 56140 · 2023-046BA

PAYLOAD ACTIVE UNKNOWN

§ Identity

Operator
Country
US
Launch date
2023-03-29
Launch site
AFETR
Launch vehicle
Mass (kg)
RCS (m²)

Purposes: comms

External: N2YO · Heavens-Above · Gunter

§ Orbital elements

Epoch: 2026-05-25T04:16:24.403008Z

Period
94.27 min
Inclination
43.0044°
Eccentricity
0.0000973
Mean motion
15.27568837 rev/d
Perigee alt
482.4 km
Apogee alt
483.8 km
Semi-major
6,861.2 km
B*
3.3173e-5
RAAN
75.3898°
Arg perigee
255.5650°
Mean anomaly
104.5094°
Rev number
17,389

§ Raw data

STARLINK-53751 56140U 23046BA  26145.17806022  .00000651  00000+0  33173-4 0  99972 56140  43.0044  75.3898 0000973 255.5650 104.5094 15.27568837173893

JSON: /api/v1/satellites/56140 · /tle

For live sub-satellite position, see the globe view (requires WebGL).

§ Visibility from observer

Set your observer location to see the next 7 days of passes ≥ 10°. The values pass through the URL so the page stays shareable.

No JS? Fill the form by hand. The geolocation button needs JavaScript.